Find Starlink 31523

NORAD ID: 59220 Int'l Des: 2024-046 Owner: SPXS Country: US Constellation: starlink operational
LEOCIRCULAR

Live-Position

3D-Globus wird geladen...

Über Starlink 31523

Beschreibung wird geladen...

Nächste Überflüge

Passes for default location (London). Set your location on the main map for personalized predictions.

Höhenverlauf

Loading altitude history...

Zweizeiliger Elementsatz

1 59220U 24046V 26120.88904831 -.00001266 00000-0 -26334-4 0 9995
2 59220 53.1614 272.7228 0001101 75.2148 284.8976 15.34405429121038
Epoch: 30. Apr. 2026 • Age: 23 hours

Aktueller Status

Höhe 463.7 km
Geschwindigkeit 7.64 km/s
Subsatellitenpunkt 27.10°N, 91.63°W
Startdatum 11. März 2024
Alter 2.1 years
Typ internet

Technische Details

Klassifizierung Payload
Masse 730.00 kg
Trockenmasse 700.00 kg
Gesamtmasse 730.00 kg
Länge 0.30 m
Durchmesser 4.10 m
Spannweite 29.00 m
Form Box + pan
Hersteller SPXS
Bus-Typ Starlink V2M
Phasenstatus In Orbit
Besitzer/Staat SPXS/US

Most Searched